Terminal Aerodrome Forecast
Issued by NWS

Home | Current Version | Previous Version | Text Only | Print | Product List | Glossary On
Versions: 1 2 3 4 5 6 7 8 9 10 11 12 13 14 15 16 17 18 19 20 21 22 23 24 25 26 27 28 29 30 31 32 33 34 35 36 37 38 39 40 41 42 43 44 45 46 47 48 49 50
485
FTUS41 KCTP 010538
TAFJST
TAF
KJST 010538Z 0106/0206 18007G16KT 3SM -RA BR OVC002
     FM010800 16009KT 2SM -RA BR OVC004 WS020/22040KT
     FM011100 19007KT 5SM -SHRA BR OVC007
     FM011800 23007KT P6SM OVC015=

USA.gov is the U.S. government's official web portal to all federal, state and local government web resources and services.